Weather History for George, South Africa

Change the Weather History Date:

Sunday, November 13, 2011

  Actual Average Record
Temperature  
Mean Temperature 61 °F -  
Max Temperature 68 °F 70 °F 86 °F (2007)
Min Temperature 51 °F 55 °F 51 °F (1996)
Degree Days  
Heating Degree Days 4    
Growing Degree Days 11 (Base 50)    
Moisture  
Dew Point 49 °F    
Average Humidity 68    
Maximum Humidity 88    
Minimum Humidity 43    
Precipitation  
Precipitation 0.00 in - - ()
Sea Level Pressure  
Sea Level Pressure 29.97 in    
Wind  
Wind Speed 6 mph ()    
Max Wind Speed 22 mph    
Max Gust Speed -    
Visibility 8.4 miles    
Events Rain    
Averages and records for this station are not official NWS values.
T = Trace of Precipitation, MM = Missing Value Source: Averaged Metar Reports

Daily Weather History Graph

Daily Weather History Graph

Search for Another Location

Airport:

Trip Planner

Search our weather history database for the weather conditions in past years. The results will help you decide how hot, cold, wet, or windy it might be!

Date:

Astronomy

Nov. 13, 2011 Rise Set
Actual Time 5:20 AM SAST 7:09 PM SAST
Civil Twilight 4:52 AM SAST 7:37 PM SAST
Nautical Twilight 4:19 AM SAST 8:10 PM SAST
Astronomical Twilight 3:44 AM SAST 8:45 PM SAST
Moon 9:39 PM SAST (11/13) 6:58 AM SAST (11/13)
Length of Visible Light 14h 44m
Length of Day
13h 49m
Waning Gibbous, 94% of the Moon is Illuminated
Nov 13
Waning Gibbous
Nov 18
Last Quarter
Nov 25
New
Dec 2
First Quarter
Dec 10
Full

Hourly Weather History & Observations

Time (SAST) Temp. Dew Point Humidity Pressure Visibility Wind Dir Wind Speed Gust Speed Precip Events Conditions
12:00 AM 57.2 °F 51.8 °F 82% 30.01 in 6.2 mi NW 4.6 mph - N/A   Overcast
1:00 AM 57.2 °F 51.8 °F 82% 29.98 in 6.2 mi NW 3.5 mph - N/A   Overcast
2:00 AM 57 °F 51 °F 74% 29.97 in 19 mi WNW 3.5 mph - -  
2:00 AM 57.2 °F 51.8 °F 82% 29.95 in 6.2 mi WNW 3.5 mph - N/A   Overcast
3:00 AM 57.2 °F 50.0 °F 77% 29.95 in 6.2 mi Variable 2.3 mph - N/A   Mostly Cloudy
4:00 AM 55.4 °F 50.0 °F 82% 29.92 in 6.2 mi NE 2.3 mph - N/A   Mostly Cloudy
5:00 AM 55 °F 51 °F 82% 29.92 in 19 mi NNE 2.3 mph - -   Mostly Cloudy
5:00 AM 55.4 °F 51.8 °F 88% 29.92 in 6.2 mi NNE 3.5 mph - N/A   Mostly Cloudy
6:00 AM 55.4 °F 50.0 °F 82% 29.92 in 6.2 mi Variable 1.2 mph - N/A   Mostly Cloudy
7:00 AM 57.2 °F 50.0 °F 77% 29.92 in 6.2 mi North 3.5 mph - N/A   Partly Cloudy
8:00 AM 60 °F 49 °F 56% 29.92 in 19 mi SE 3.5 mph - -   Partly Cloudy
8:00 AM 60.8 °F 48.2 °F 63% 29.92 in 6.2 mi SE 3.5 mph - N/A   Scattered Clouds
9:00 AM 62.6 °F 48.2 °F 59% 29.92 in 6.2 mi NE 3.5 mph - N/A   Scattered Clouds
9:41 AM 66.2 °F 48.2 °F 52% 29.92 in 6.2 mi Variable 3.5 mph - N/A   Partly Cloudy
10:00 AM 64.4 °F 50.0 °F 59% 29.92 in 6.2 mi WSW 6.9 mph - N/A   Scattered Clouds
11:00 AM 66 °F 51 °F 48% 29.91 in 19 mi South 8.1 mph - -   Mostly Cloudy
11:00 AM 66.2 °F 50.0 °F 56% 29.92 in 6.2 mi South 9.2 mph - N/A   Scattered Clouds
12:00 PM 68.0 °F 46.4 °F 46% 29.89 in 6.2 mi South 11.5 mph - N/A   Mostly Cloudy
1:00 PM 59.0 °F 51.8 °F 77% 29.95 in 6.2 mi SSW 21.9 mph - N/A   Mostly Cloudy
2:00 PM 61 °F 52 °F 63% 29.94 in 12 mi SW 20.7 mph - -   Mostly Cloudy
2:00 PM 60.8 °F 51.8 °F 72% 29.95 in 6.2 mi SW 20.7 mph - N/A   Mostly Cloudy
3:00 PM 59.0 °F 50.0 °F 72% 29.95 in 6.2 mi SW 17.3 mph - N/A   Mostly Cloudy
4:00 PM 59.0 °F 44.6 °F 59% 29.95 in 6.2 mi WSW 16.1 mph - N/A   Mostly Cloudy
5:00 PM 61 °F 44 °F 43% 29.98 in 12 mi WSW 15.0 mph - -   Mostly Cloudy
5:00 PM 60.8 °F 44.6 °F 55% 29.98 in 6.2 mi WSW 13.8 mph - N/A   Mostly Cloudy
6:00 PM 59.0 °F 44.6 °F 59% 30.01 in 6.2 mi WSW 13.8 mph - N/A   Mostly Cloudy
7:00 PM 57.2 °F 44.6 °F 63% 30.04 in 6.2 mi WNW 9.2 mph - N/A   Scattered Clouds
8:00 PM 55 °F 46 °F 62% 30.06 in 12 mi WNW 6.9 mph - -   Partly Cloudy
8:00 PM 55.4 °F 46.4 °F 72% 30.04 in 6.2 mi NW 5.8 mph - N/A   Scattered Clouds
9:00 PM 55.4 °F 50.0 °F 82% 30.09 in 6.2 mi West 11.5 mph - N/A Rain Light Rain
10:00 PM 55.4 °F 48.2 °F 77% 30.09 in 6.2 mi NNW 8.1 mph - N/A   Mostly Cloudy
11:00 PM 51.8 °F 48.2 °F 88% 30.09 in - WNW 6.9 mph - N/A   Clear